Wind_Speed
21 21 21 21 21 22 22 23 24 25 25 25 26 26 26 18 20 23 16 16 20 25 24 23 12 19 2 2 2 4 2 4 5 6 7 4 6 5 4 3 4 5 4 3 30
21 22 23 23 22 22 23 23 25 25 25 25 26 26 24 17 6 26 18 19 21 22 22 17 8 14 5 2 2 3 4 9 7 5 3 4 1 5 6 6 2 3 6 9 30
22 22 24 23 23 23 23 24 24 25 25 25 25 25 18 5 3 7 23 20 21 19 15 9 6 2 2 3 2 3 6 4 6 5 2 4 6 4 2 5 5 4 7 7 6
23 24 24 25 24 25 25 24 25 24 26 25 22 22 12 3 1 14 21 20 19 19 19 10 6 3 2 3 5 5 6 5 6 5 6 7 5 5 6 9 4 2 13 9 10
23 24 25 25 26 26 26 27 25 24 24 23 19 16 5 6 5 21 21 17 15 17 17 7 7 6 3 5 7 4 5 9 9 9 7 7 9 10 8 9 7 3 10 13 13
23 24 25 26 27 28 28 27 26 24 20 18 13 10 3 7 12 22 21 18 16 14 10 8 2 3 4 4 3 7 7 10 7 8 5 8 15 6 7 5 9 8 12 13 15
23 24 25 26 28 29 28 29 30 21 14 7 10 6 13 6 19 27 24 27 19 12 4 5 5 2 3 6 7 8 9 8 6 6 8 4 14 7 15 6 12 12 10 13 17
21 23 24 26 28 28 31 32 22 11 4 4 6 3 4 9 16 27 30 26 28 14 8 9 7 1 1 5 8 5 3 5 5 8 6 5 20 11 8 8 14 17 12 10 14
22 24 25 26 28 28 31 29 11 12 6 5 5 2 3 8 18 22 26 19 20 25 19 5 4 2 5 5 4 5 5 4 8 14 7 3 4 5 10 7 12 12 14 9 11
24 25 26 28 27 27 35 7 4 24 9 5 13 4 7 6 13 17 25 19 8 17 7 10 5 5 7 9 5 14 10 10 15 9 25 24 21 18 15 17 15 17 15 9 13
25 25 26 27 25 24 33 6 9 7 15 2 6 1 3 13 7 20 23 8 8 6 7 6 8 8 8 7 9 11 13 17 14 12 11 17 19 18 18 21 17 16 15 12 13
25 26 27 28 23 18 27 9 5 2 5 7 2 3 6 7 3 16 18 7 8 12 8 6 7 6 14 13 13 11 14 12 12 9 19 12 34 22 25 25 20 18 21 22 11
25 26 26 27 11 17 19 16 9 7 3 6 3 3 6 4 4 9 7 5 5 11 8 4 2 12 13 13 17 14 14 13 17 19 16 19 28 18 24 24 22 22 20 22 19
25 24 25 24 4 17 3 18 11 5 4 3 3 6 9 3 6 7 13 6 7 6 4 3 5 11 13 9 11 14 3 17 21 15 5 10 12 19 8 15 22 26 18 18 12
28 25 24 14 10 5 16 18 11 2 4 6 4 3 12 6 5 8 13 7 4 5 3 4 9 15 8 7 10 7 10 13 15 17 16 20 9 16 10 20 27 13 15 11 11
30 26 18 12 13 14 20 19 3 5 2 5 4 6 7 7 8 8 6 8 2 3 2 8 7 3 7 13 10 12 12 18 14 6 10 16 15 12 17 21 17 9 17 13 13
29 23 12 10 10 21 19 4 5 5 5 5 4 5 3 5 6 8 7 8 2 6 10 7 2 5 4 14 7 13 4 4 5 4 7 3 11 25 16 14 12 14 12 11 13
30 13 11 16 15 16 9 5 8 4 2 2 4 5 4 6 6 8 8 5 5 5 4 6 7 9 11 12 9 16 3 4 6 10 12 10 12 10 11 18 24 26 26 22 14
26 11 16 21 16 17 5 6 6 3 4 4 6 5 5 5 2 7 5 2 4 5 3 5 5 23 15 10 3 5 4 8 10 18 10 8 20 23 27 26 18 20 15 13 10
19 5 13 17 19 11 5 4 2 3 4 4 2 3 1 3 4 4 3 3 6 4 3 5 13 9 9 7 3 7 6 7 5 7 6 8 13 12 18 27 18 18 23 27 20
7 4 13 19 14 6 3 4 2 3 4 3 2 1 2 2 1 3 4 7 1 5 3 5 3 14 4 5 17 9 5 5 8 6 6 9 7 13 18 20 15 8 10 9 6
5 3 15 17 4 1 2 3 4 3 3 2 3 3 2 2 2 2 5 5 5 1 4 4 4 4 25 21 8 3 6 11 6 11 16 15 14 17 19 11 9 18 10 7 9
3 1 9 8 3 3 5 5 3 4 4 4 3 3 2 2 3 4 4 7 5 2 2 3 2 6 15 6 2 6 9 13 14 15 20 11 11 3 14 19 18 13 14 9 8
3 3 4 5 1 3 3 4 5 3 4 5 5 2 1 3 5 4 5 5 3 6 15 2 3 6 8 17 16 21 29 24 16 10 16 16 28 30 16 18 14 10 9 13 5
3 2 3 3 4 3 1 1 4 5 2 0 3 1 6 4 3 6 4 4 7 11 2 4 6 4 15 19 21 24 26 25 20 20 13 22 28 25 23 24 1 8 11 12 11
2 3 3 2 1 2 4 3 5 4 2 8 3 15 8 11 10 20 18 12 5 9 5 2 9 3 16 16 12 21 24 16 15 15 9 15 21 27 29 13 8 10 11 14 14
2 3 4 3 0 3 3 4 10 12 7 3 10 14 15 18 17 14 13 15 15 15 18 6 4 2 8 15 8 9 6 20 11 15 13 14 21 24 12 13 12 11 13 14 16
Wind_Direction
15 11 8 4 0 358 355 351 348 346 346 346 346 345 349 6 49 50 43 350 335 337 342 346 358 356 18 255 234 118 80 227 242 181 248 329 11 302 283 5 20 3 146 222 151
11 9 5 2 359 357 352 347 342 341 341 341 342 341 343 344 81 47 0 349 344 345 344 344 334 343 345 265 284 147 161 219 211 206 277 312 144 326 341 346 35 5 27 127 147
7 6 3 359 357 353 349 343 340 338 339 340 339 338 344 358 76 10 355 353 355 357 344 318 314 270 305 321 270 202 210 234 280 255 270 292 313 227 240 287 223 227 167 162 154
4 2 360 356 353 348 345 340 337 334 332 333 334 337 356 65 98 353 355 2 11 6 13 356 348 23 299 287 344 332 268 270 287 322 325 296 291 275 212 228 200 248 175 174 183
3 359 356 354 349 346 342 336 335 332 329 330 335 343 22 52 36 354 345 351 3 14 17 10 37 5 349 325 321 221 315 324 316 313 290 294 259 251 241 244 262 252 165 189 198
1 357 355 351 348 344 340 336 335 330 329 328 338 348 48 80 21 16 8 6 352 353 353 11 21 287 279 288 318 313 291 287 293 287 259 265 271 171 251 250 253 228 195 200 203
1 356 354 351 346 341 339 333 328 325 328 347 1 54 66 86 40 27 18 13 356 327 323 326 356 46 336 307 340 282 302 304 260 238 242 258 273 233 255 214 234 235 209 211 208
357 357 353 351 348 344 339 334 338 351 14 37 11 46 88 48 29 26 12 360 8 357 312 306 320 163 205 300 334 317 286 322 335 11 287 182 260 293 280 238 247 252 247 208 209
0 356 353 352 350 348 340 337 3 355 63 92 58 20 62 6 2 6 11 5 4 8 33 24 108 72 7 347 349 356 301 323 321 328 316 270 313 312 306 247 256 257 257 217 234
360 357 354 354 355 352 346 0 58 48 79 92 32 57 16 310 333 4 15 26 18 7 17 15 39 62 22 22 351 318 310 309 300 317 316 299 290 287 290 288 260 259 256 234 227
359 357 353 353 356 3 5 26 12 357 34 86 274 169 258 330 359 9 9 27 16 52 26 354 64 28 346 4 344 326 311 306 301 290 316 293 298 287 283 271 267 261 262 242 227
357 355 354 351 357 19 32 62 71 255 329 327 256 277 284 323 343 349 21 42 32 28 10 12 67 0 345 343 326 311 308 308 300 320 316 312 293 282 275 272 270 256 254 249 240
356 352 351 344 346 23 49 36 13 357 90 313 315 8 327 8 4 336 20 358 28 17 26 66 277 349 343 336 325 320 310 302 293 316 291 289 284 269 255 251 255 254 249 248 235
352 353 349 346 8 346 56 353 351 334 74 321 8 7 338 40 11 359 16 25 4 10 51 353 332 327 328 344 331 322 329 309 302 316 325 350 287 276 282 258 241 245 241 241 233
354 349 348 357 325 352 330 335 336 90 71 282 39 35 329 57 265 340 354 0 340 320 102 301 322 313 323 328 310 294 327 309 302 286 295 260 247 279 189 243 247 254 248 226 227
351 347 351 4 347 330 328 331 112 45 275 338 41 351 19 20 348 345 355 6 356 18 32 303 264 262 286 307 271 314 324 297 271 240 253 252 224 270 247 251 260 241 248 232 229
351 355 7 357 331 334 334 7 40 90 300 3 352 356 18 356 2 13 350 349 21 14 336 339 192 290 298 335 310 301 330 324 335 222 253 348 210 243 278 285 275 259 254 256 231
349 4 16 11 345 338 350 51 65 256 347 56 348 347 63 22 352 339 345 356 5 53 319 346 337 340 320 300 281 280 218 248 262 271 275 303 253 251 306 259 256 265 263 258 248
353 36 22 2 355 342 65 48 175 240 358 4 7 37 343 22 50 11 325 284 15 50 46 309 276 304 307 295 215 303 226 233 262 266 275 243 258 268 277 270 257 245 251 247 245
348 14 11 357 345 351 68 101 67 31 6 16 96 135 346 323 20 36 313 262 337 52 123 272 298 279 329 301 262 217 281 316 258 278 274 262 253 260 292 285 291 271 258 260 266
12 48 2 346 336 40 90 222 312 14 26 111 221 302 224 217 152 293 254 298 158 321 321 265 236 300 318 324 307 334 336 272 284 262 287 299 303 314 260 264 288 319 327 308 282
19 41 356 349 47 24 33 202 308 319 312 337 111 190 238 224 224 251 247 199 293 3 304 261 229 294 296 290 258 162 293 316 310 312 293 283 276 275 271 330 309 334 328 290 287
43 294 3 0 61 343 331 315 352 338 339 348 319 204 179 231 310 187 238 265 274 134 239 282 277 318 329 356 168 274 303 301 300 281 265 284 276 168 342 298 302 328 313 302 307
64 26 334 39 49 115 12 298 330 284 241 246 256 231 73 287 213 262 246 279 233 213 284 337 245 191 263 270 294 298 301 303 297 286 286 266 274 289 305 308 297 335 311 301 347
38 264 179 308 326 348 90 230 305 325 254 269 325 246 289 273 292 249 245 285 284 274 238 147 247 219 258 268 280 278 284 290 293 276 271 294 297 313 321 298 47 296 326 323 6
107 86 354 259 294 71 320 278 289 294 354 305 254 299 288 288 254 284 285 279 250 285 171 241 272 266 287 278 266 289 286 281 292 317 297 316 329 325 317 280 23 18 350 350 345
174 171 141 270 6 84 237 240 296 308 291 291 299 299 293 278 277 268 260 260 261 266 272 189 226 239 270 296 309 301 225 339 322 318 333 339 334 324 317 43 24 21 12 356 338
Height
866 862 858 855 852 848 845 842 837 834 830 827 824 819 816 813 812 808 809 816 812 805 798 794 789 787 785 785 783 785 805 808 793 791 777 768 767 757 755 755 754 756 755 754 759
866 862 858 855 852 848 845 842 837 833 829 826 823 818 816 813 812 812 818 815 810 804 799 796 793 790 790 786 785 791 806 796 781 776 772 770 768 768 764 764 759 761 759 757 758
867 863 859 856 852 848 844 842 837 832 828 825 822 818 814 812 813 820 817 814 809 805 801 798 795 792 792 788 786 787 795 785 775 773 772 770 771 764 764 767 759 759 763 762 762
867 862 859 856 852 849 844 840 837 832 826 824 821 817 812 812 819 822 818 814 810 806 802 799 797 795 795 795 792 795 783 783 776 771 774 775 766 766 765 762 755 754 756 760 761
868 864 861 856 852 847 843 838 834 830 826 822 820 817 813 819 827 824 817 813 811 807 804 803 805 808 805 803 796 791 789 784 779 778 776 771 771 767 761 757 755 754 757 758 758
869 866 861 856 851 846 842 835 832 828 825 822 820 817 816 830 828 824 819 813 810 809 808 807 809 808 809 804 803 797 791 786 780 776 774 774 763 764 753 750 753 753 754 754 755
870 866 862 857 851 846 840 834 829 825 823 821 820 818 821 833 828 824 819 815 810 809 809 807 808 808 809 808 800 796 794 787 779 771 768 762 760 762 747 749 747 745 745 747 746
872 868 863 858 852 845 838 831 825 822 822 822 821 821 827 828 827 822 820 814 809 809 807 805 806 808 808 806 801 799 796 797 775 773 767 767 757 753 746 751 748 741 738 741 739
871 867 863 858 852 844 836 830 826 823 821 821 822 823 831 829 826 824 822 817 810 807 806 805 806 809 811 814 816 811 814 804 792 782 777 774 762 751 747 748 746 741 735 737 735
872 868 862 857 851 845 835 827 827 824 823 823 824 829 834 835 829 826 823 819 815 813 811 813 816 825 834 836 835 831 829 814 810 794 779 774 765 758 752 746 743 734 730 732 730
873 868 863 858 853 847 835 828 835 833 833 845 844 842 839 835 831 828 824 821 819 822 832 827 833 849 847 841 840 837 829 822 810 800 797 776 768 757 747 739 736 732 729 725 724
873 869 863 857 854 851 847 846 855 859 855 842 842 841 838 836 836 832 830 829 831 835 836 837 842 843 838 837 838 835 832 823 805 795 794 783 758 760 748 733 725 722 716 711 715
874 869 865 859 855 853 854 856 857 856 862 848 844 842 840 838 838 838 834 833 835 838 843 845 843 837 839 839 832 831 834 828 821 809 802 787 749 732 718 719 715 707 703 700 701
875 870 866 861 858 857 856 857 856 855 880 851 846 847 843 839 844 840 837 839 840 844 844 845 841 842 839 838 834 828 824 823 820 822 817 794 768 721 716 708 704 693 696 697 697
875 870 865 862 863 861 861 856 854 856 900 855 851 850 847 848 851 846 841 839 843 845 847 849 844 839 839 836 833 827 825 821 818 816 813 798 799 703 705 704 687 694 692 693 692
873 868 864 863 862 861 858 855 854 884 913 865 858 860 856 854 853 851 846 844 844 846 846 848 841 839 835 835 831 823 826 818 808 810 806 782 783 719 704 695 691 688 682 682 682
874 868 865 864 863 859 857 856 884 896 876 870 867 864 863 862 858 858 857 859 866 883 862 846 839 836 831 836 830 827 834 862 857 813 795 760 770 716 700 692 687 683 680 676 673
874 869 868 867 864 860 857 875 905 915 876 867 869 865 867 868 868 867 867 875 860 866 882 872 884 841 830 840 838 828 828 834 831 798 773 759 744 706 693 688 685 670 673 670 669
873 870 871 868 865 861 867 902 914 888 871 871 874 878 884 871 878 876 875 874 862 865 883 874 853 836 832 827 826 825 825 807 811 800 796 767 726 704 698 682 676 668 665 665 662
874 874 875 872 868 864 881 896 898 877 875 872 886 892 886 883 890 892 885 867 867 864 871 879 857 834 824 821 815 819 812 810 795 779 763 739 731 710 693 672 671 664 657 647 650
876 882 879 875 872 876 903 919 887 877 877 888 886 882 890 893 893 892 880 868 865 867 865 867 874 840 830 832 827 820 817 813 795 782 762 746 727 700 684 670 672 671 664 657 656
882 897 883 879 888 910 905 906 880 879 877 880 887 890 881 884 905 906 881 877 865 869 879 860 877 856 837 816 813 816 816 811 808 794 781 766 735 690 685 684 685 668 665 664 659
892 894 886 883 902 910 905 901 893 885 881 881 885 883 896 886 888 897 904 874 872 875 881 869 887 877 852 817 812 821 811 809 808 798 776 767 727 681 695 693 679 668 666 658 652
896 905 896 892 900 904 908 905 901 887 886 880 877 877 892 893 884 882 880 873 863 866 854 861 871 870 867 841 829 825 802 804 806 798 771 750 721 695 697 684 674 667 666 662 646
901 913 906 915 910 910 905 911 902 899 886 884 884 885 883 882 894 881 870 875 863 854 859 863 873 872 846 835 829 823 812 802 798 778 764 739 724 714 710 697 676 677 671 664 651
906 910 908 912 902 907 899 908 894 893 891 888 887 877 877 876 880 870 863 859 860 851 860 869 851 861 848 825 826 815 802 790 777 762 759 746 732 723 707 682 680 677 676 669 662
899 900 903 904 914 915 910 895 889 888 881 878 879 876 873 865 857 854 851 849 846 847 844 854 860 865 844 828 838 834 788 773 771 766 766 754 743 728 695 685 685 680 675 677 671